Location: Emporia
(38.4040°N, 96.1810°W)
Time: 03:17:26
(UTC-05:00)

ISS - Visible Passes

Search period start: 02 May 2016 00:00
Search period end: 12 May 2016 00:00
Orbit: 402 x 405 km, 51.6° (Epoch: 02 May)

Date Brightness Start Highest point End Pass type
(mag) Time Alt. Az. Time Alt. Az. Time Alt. Az.
06 May -0.4 05:16:50 10° SE 05:17:14 10° SE 05:17:38 10° ESE visible
08 May -1.6 05:06:11 14° S 05:08:19 25° SE 05:11:05 10° ENE visible
09 May -0.8 04:15:50 13° SE 04:15:58 13° SE 04:17:32 10° E visible
10 May -3.2 04:58:02 29° SW 04:59:30 69° SE 05:02:45 10° NE visible
11 May -1.9 04:07:30 30° ESE 04:07:30 30° ESE 04:09:59 10° ENE visible
11 May -1.8 05:40:39 10° W 05:43:29 27° NNW 05:46:20 10° NNE visible
